Date_Time,Julian_Date,Latitude,Longitude,Instrument_Depth,Water_Salinity
(yyyy-mm-dd hh:mn:ss UTC),(JD),(+ deg. North),(+ deg. East),(m),(ppt)
1983-05-24 19:00:00 UTC,2445479.291667,28.7317,-95.2428,0109,0.3080
1983-05-24 19:30:00 UTC,2445479.312500,28.7317,-95.2428,0109,0.3090
1983-05-24 20:00:00 UTC,2445479.333333,28.7317,-95.2428,0109,0.3100
1983-05-24 20:30:00 UTC,2445479.354167,28.7317,-95.2428,0109,0.3100
1983-05-24 21:00:00 UTC,2445479.375000,28.7317,-95.2428,0109,0.3100
1983-05-24 21:30:00 UTC,2445479.395833,28.7317,-95.2428,0109,0.3100
1983-05-24 22:00:00 UTC,2445479.416667,28.7317,-95.2428,0109,0.3100
1983-05-24 22:30:00 UTC,2445479.437500,28.7317,-95.2428,0109,0.3100
1983-05-24 23:00:00 UTC,2445479.458333,28.7317,-95.2428,0109,0.3090
1983-05-24 23:30:00 UTC,2445479.479167,28.7317,-95.2428,0109,0.3090
1983-05-25 00:00:00 UTC,2445479.500000,28.7317,-95.2428,0109,0.3070
1983-05-25 00:30:00 UTC,2445479.520833,28.7317,-95.2428,0109,0.3060
1983-05-25 01:00:00 UTC,2445479.541667,28.7317,-95.2428,0109,0.3050
1983-05-25 01:30:00 UTC,2445479.562500,28.7317,-95.2428,0109,0.3050
1983-05-25 02:00:00 UTC,2445479.583333,28.7317,-95.2428,0109,0.3060
1983-05-25 02:30:00 UTC,2445479.604167,28.7317,-95.2428,0109,0.3070
1983-05-25 03:00:00 UTC,2445479.625000,28.7317,-95.2428,0109,0.3070
1983-05-25 03:30:00 UTC,2445479.645833,28.7317,-95.2428,0109,0.3070
1983-05-25 04:00:00 UTC,2445479.666667,28.7317,-95.2428,0109,0.3070
1983-05-25 04:30:00 UTC,2445479.687500,28.7317,-95.2428,0109,0.3070
1983-05-25 05:00:00 UTC,2445479.708333,28.7317,-95.2428,0109,0.3070
1983-05-25 05:30:00 UTC,2445479.729167,28.7317,-95.2428,0109,0.3070
1983-05-25 06:00:00 UTC,2445479.750000,28.7317,-95.2428,0109,0.3080
1983-05-25 06:30:00 UTC,2445479.770833,28.7317,-95.2428,0109,0.3080
1983-05-25 07:00:00 UTC,2445479.791667,28.7317,-95.2428,0109,0.3090
1983-05-25 07:30:00 UTC,2445479.812500,28.7317,-95.2428,0109,0.3090
1983-05-25 08:00:00 UTC,2445479.833333,28.7317,-95.2428,0109,0.3090
1983-05-25 08:30:00 UTC,2445479.854167,28.7317,-95.2428,0109,0.3100
1983-05-25 09:00:00 UTC,2445479.875000,28.7317,-95.2428,0109,0.3100
1983-05-25 09:30:00 UTC,2445479.895833,28.7317,-95.2428,0109,0.3110
1983-05-25 10:00:00 UTC,2445479.916667,28.7317,-95.2428,0109,0.3120
1983-05-25 10:30:00 UTC,2445479.937500,28.7317,-95.2428,0109,0.3140
1983-05-25 11:00:00 UTC,2445479.958333,28.7317,-95.2428,0109,0.3160
1983-05-25 11:30:00 UTC,2445479.979167,28.7317,-95.2428,0109,0.3180
1983-05-25 12:00:00 UTC,2445480.000000,28.7317,-95.2428,0109,0.3180
1983-05-25 12:30:00 UTC,2445480.020833,28.7317,-95.2428,0109,0.3180
1983-05-25 13:00:00 UTC,2445480.041667,28.7317,-95.2428,0109,0.3190
1983-05-25 13:30:00 UTC,2445480.062500,28.7317,-95.2428,0109,0.3200
1983-05-25 14:00:00 UTC,2445480.083333,28.7317,-95.2428,0109,0.3210
1983-05-25 14:30:00 UTC,2445480.104167,28.7317,-95.2428,0109,0.3230
1983-05-25 15:00:00 UTC,2445480.125000,28.7317,-95.2428,0109,0.3240
1983-05-25 15:30:00 UTC,2445480.145833,28.7317,-95.2428,0109,0.3250
1983-05-25 16:00:00 UTC,2445480.166667,28.7317,-95.2428,0109,0.3250
1983-05-25 16:30:00 UTC,2445480.187500,28.7317,-95.2428,0109,0.3240
1983-05-25 17:00:00 UTC,2445480.208333,28.7317,-95.2428,0109,0.3240
1983-05-25 17:30:00 UTC,2445480.229167,28.7317,-95.2428,0109,0.3230
1983-05-25 18:00:00 UTC,2445480.250000,28.7317,-95.2428,0109,0.3230
1983-05-25 18:30:00 UTC,2445480.270833,28.7317,-95.2428,0109,0.3230
1983-05-25 19:00:00 UTC,2445480.291667,28.7317,-95.2428,0109,0.3230
1983-05-25 19:30:00 UTC,2445480.312500,28.7317,-95.2428,0109,0.3230
1983-05-25 20:00:00 UTC,2445480.333333,28.7317,-95.2428,0109,0.3220
1983-05-25 20:30:00 UTC,2445480.354167,28.7317,-95.2428,0109,0.3220
1983-05-25 21:00:00 UTC,2445480.375000,28.7317,-95.2428,0109,0.3210
1983-05-25 21:30:00 UTC,2445480.395833,28.7317,-95.2428,0109,0.3210
1983-05-25 22:00:00 UTC,2445480.416667,28.7317,-95.2428,0109,0.3220
1983-05-25 22:30:00 UTC,2445480.437500,28.7317,-95.2428,0109,0.3220
1983-05-25 23:00:00 UTC,2445480.458333,28.7317,-95.2428,0109,0.3220
1983-05-25 23:30:00 UTC,2445480.479167,28.7317,-95.2428,0109,0.3220
1983-05-26 00:00:00 UTC,2445480.500000,28.7317,-95.2428,0109,0.3210
1983-05-26 00:30:00 UTC,2445480.520833,28.7317,-95.2428,0109,0.3210
1983-05-26 01:00:00 UTC,2445480.541667,28.7317,-95.2428,0109,0.3210
1983-05-26 01:30:00 UTC,2445480.562500,28.7317,-95.2428,0109,0.3210
1983-05-26 02:00:00 UTC,2445480.583333,28.7317,-95.2428,0109,0.3200
1983-05-26 02:30:00 UTC,2445480.604167,28.7317,-95.2428,0109,0.3210
1983-05-26 03:00:00 UTC,2445480.625000,28.7317,-95.2428,0109,0.3210
1983-05-26 03:30:00 UTC,2445480.645833,28.7317,-95.2428,0109,0.3200
1983-05-26 04:00:00 UTC,2445480.666667,28.7317,-95.2428,0109,0.3200
1983-05-26 04:30:00 UTC,2445480.687500,28.7317,-95.2428,0109,0.3200
1983-05-26 05:00:00 UTC,2445480.708333,28.7317,-95.2428,0109,0.3190
1983-05-26 05:30:00 UTC,2445480.729167,28.7317,-95.2428,0109,0.3190
1983-05-26 06:00:00 UTC,2445480.750000,28.7317,-95.2428,0109,0.3180
1983-05-26 06:30:00 UTC,2445480.770833,28.7317,-95.2428,0109,0.3180
1983-05-26 07:00:00 UTC,2445480.791667,28.7317,-95.2428,0109,0.3180
1983-05-26 07:30:00 UTC,2445480.812500,28.7317,-95.2428,0109,0.3190
1983-05-26 08:00:00 UTC,2445480.833333,28.7317,-95.2428,0109,0.3190
1983-05-26 08:30:00 UTC,2445480.854167,28.7317,-95.2428,0109,0.3190
1983-05-26 09:00:00 UTC,2445480.875000,28.7317,-95.2428,0109,0.3200
1983-05-26 09:30:00 UTC,2445480.895833,28.7317,-95.2428,0109,0.3210
1983-05-26 10:00:00 UTC,2445480.916667,28.7317,-95.2428,0109,0.3210
1983-05-26 10:30:00 UTC,2445480.937500,28.7317,-95.2428,0109,0.3220
1983-05-26 11:00:00 UTC,2445480.958333,28.7317,-95.2428,0109,0.3230
1983-05-26 11:30:00 UTC,2445480.979167,28.7317,-95.2428,0109,0.3230
1983-05-26 12:00:00 UTC,2445481.000000,28.7317,-95.2428,0109,0.3240
1983-05-26 12:30:00 UTC,2445481.020833,28.7317,-95.2428,0109,0.3250
1983-05-26 13:00:00 UTC,2445481.041667,28.7317,-95.2428,0109,0.3250
1983-05-26 13:30:00 UTC,2445481.062500,28.7317,-95.2428,0109,0.3260
1983-05-26 14:00:00 UTC,2445481.083333,28.7317,-95.2428,0109,0.3270
1983-05-26 14:30:00 UTC,2445481.104167,28.7317,-95.2428,0109,0.3280
1983-05-26 15:00:00 UTC,2445481.125000,28.7317,-95.2428,0109,0.3290
1983-05-26 15:30:00 UTC,2445481.145833,28.7317,-95.2428,0109,0.3300
1983-05-26 16:00:00 UTC,2445481.166667,28.7317,-95.2428,0109,0.3310
1983-05-26 16:30:00 UTC,2445481.187500,28.7317,-95.2428,0109,0.3330
1983-05-26 17:00:00 UTC,2445481.208333,28.7317,-95.2428,0109,0.3340
1983-05-26 17:30:00 UTC,2445481.229167,28.7317,-95.2428,0109,0.3350
1983-05-26 18:00:00 UTC,2445481.250000,28.7317,-95.2428,0109,0.3350
1983-05-26 18:30:00 UTC,2445481.270833,28.7317,-95.2428,0109,0.3350
1983-05-26 19:00:00 UTC,2445481.291667,28.7317,-95.2428,0109,0.3340
1983-05-26 19:30:00 UTC,2445481.312500,28.7317,-95.2428,0109,0.3350
1983-05-26 20:00:00 UTC,2445481.333333,28.7317,-95.2428,0109,0.3350
1983-05-26 20:30:00 UTC,2445481.354167,28.7317,-95.2428,0109,0.3340
1983-05-26 21:00:00 UTC,2445481.375000,28.7317,-95.2428,0109,0.3330
1983-05-26 21:30:00 UTC,2445481.395833,28.7317,-95.2428,0109,0.3320
1983-05-26 22:00:00 UTC,2445481.416667,28.7317,-95.2428,0109,0.3310
1983-05-26 22:30:00 UTC,2445481.437500,28.7317,-95.2428,0109,0.3300
1983-05-26 23:00:00 UTC,2445481.458333,28.7317,-95.2428,0109,0.3300
1983-05-26 23:30:00 UTC,2445481.479167,28.7317,-95.2428,0109,0.3290
1983-05-27 00:00:00 UTC,2445481.500000,28.7317,-95.2428,0109,0.3280
1983-05-27 00:30:00 UTC,2445481.520833,28.7317,-95.2428,0109,0.3260
1983-05-27 01:00:00 UTC,2445481.541667,28.7317,-95.2428,0109,0.3250
1983-05-27 01:30:00 UTC,2445481.562500,28.7317,-95.2428,0109,0.3240
1983-05-27 02:00:00 UTC,2445481.583333,28.7317,-95.2428,0109,0.3230
1983-05-27 02:30:00 UTC,2445481.604167,28.7317,-95.2428,0109,0.3210
1983-05-27 03:00:00 UTC,2445481.625000,28.7317,-95.2428,0109,0.3190
1983-05-27 03:30:00 UTC,2445481.645833,28.7317,-95.2428,0109,0.3180
1983-05-27 04:00:00 UTC,2445481.666667,28.7317,-95.2428,0109,0.3170
1983-05-27 04:30:00 UTC,2445481.687500,28.7317,-95.2428,0109,0.3170
1983-05-27 05:00:00 UTC,2445481.708333,28.7317,-95.2428,0109,0.3170
1983-05-27 05:30:00 UTC,2445481.729167,28.7317,-95.2428,0109,0.3170
1983-05-27 06:00:00 UTC,2445481.750000,28.7317,-95.2428,0109,0.3160
1983-05-27 06:30:00 UTC,2445481.770833,28.7317,-95.2428,0109,0.3170
1983-05-27 07:00:00 UTC,2445481.791667,28.7317,-95.2428,0109,0.3170
1983-05-27 07:30:00 UTC,2445481.812500,28.7317,-95.2428,0109,0.3160
1983-05-27 08:00:00 UTC,2445481.833333,28.7317,-95.2428,0109,0.3160
1983-05-27 08:30:00 UTC,2445481.854167,28.7317,-95.2428,0109,0.3170
1983-05-27 09:00:00 UTC,2445481.875000,28.7317,-95.2428,0109,0.3170
1983-05-27 09:30:00 UTC,2445481.895833,28.7317,-95.2428,0109,0.3170
1983-05-27 10:00:00 UTC,2445481.916667,28.7317,-95.2428,0109,0.3170
1983-05-27 10:30:00 UTC,2445481.937500,28.7317,-95.2428,0109,0.3180
1983-05-27 11:00:00 UTC,2445481.958333,28.7317,-95.2428,0109,0.3200
1983-05-27 11:30:00 UTC,2445481.979167,28.7317,-95.2428,0109,0.3220
1983-05-27 12:00:00 UTC,2445482.000000,28.7317,-95.2428,0109,0.3240
1983-05-27 12:30:00 UTC,2445482.020833,28.7317,-95.2428,0109,0.3240
1983-05-27 13:00:00 UTC,2445482.041667,28.7317,-95.2428,0109,0.3240
1983-05-27 13:30:00 UTC,2445482.062500,28.7317,-95.2428,0109,0.3250
1983-05-27 14:00:00 UTC,2445482.083333,28.7317,-95.2428,0109,0.3250
1983-05-27 14:30:00 UTC,2445482.104167,28.7317,-95.2428,0109,0.3250
1983-05-27 15:00:00 UTC,2445482.125000,28.7317,-95.2428,0109,0.3250
1983-05-27 15:30:00 UTC,2445482.145833,28.7317,-95.2428,0109,0.3250
1983-05-27 16:00:00 UTC,2445482.166667,28.7317,-95.2428,0109,0.3250
1983-05-27 16:30:00 UTC,2445482.187500,28.7317,-95.2428,0109,0.3250
1983-05-27 17:00:00 UTC,2445482.208333,28.7317,-95.2428,0109,0.3250
1983-05-27 17:30:00 UTC,2445482.229167,28.7317,-95.2428,0109,0.3250
1983-05-27 18:00:00 UTC,2445482.250000,28.7317,-95.2428,0109,0.3250
1983-05-27 18:30:00 UTC,2445482.270833,28.7317,-95.2428,0109,0.3250
1983-05-27 19:00:00 UTC,2445482.291667,28.7317,-95.2428,0109,0.3250
1983-05-27 19:30:00 UTC,2445482.312500,28.7317,-95.2428,0109,0.3250
1983-05-27 20:00:00 UTC,2445482.333333,28.7317,-95.2428,0109,0.3250
1983-05-27 20:30:00 UTC,2445482.354167,28.7317,-95.2428,0109,0.3260
1983-05-27 21:00:00 UTC,2445482.375000,28.7317,-95.2428,0109,0.3260
1983-05-27 21:30:00 UTC,2445482.395833,28.7317,-95.2428,0109,0.3260
1983-05-27 22:00:00 UTC,2445482.416667,28.7317,-95.2428,0109,0.3260
1983-05-27 22:30:00 UTC,2445482.437500,28.7317,-95.2428,0109,0.3260
1983-05-27 23:00:00 UTC,2445482.458333,28.7317,-95.2428,0109,0.3260
1983-05-27 23:30:00 UTC,2445482.479167,28.7317,-95.2428,0109,0.3260
1983-05-28 00:00:00 UTC,2445482.500000,28.7317,-95.2428,0109,0.3260
1983-05-28 00:30:00 UTC,2445482.520833,28.7317,-95.2428,0109,0.3260
1983-05-28 01:00:00 UTC,2445482.541667,28.7317,-95.2428,0109,0.3270
1983-05-28 01:30:00 UTC,2445482.562500,28.7317,-95.2428,0109,0.3270
1983-05-28 02:00:00 UTC,2445482.583333,28.7317,-95.2428,0109,0.3270
1983-05-28 02:30:00 UTC,2445482.604167,28.7317,-95.2428,0109,0.3270
1983-05-28 03:00:00 UTC,2445482.625000,28.7317,-95.2428,0109,0.3270
1983-05-28 03:30:00 UTC,2445482.645833,28.7317,-95.2428,0109,0.3260
1983-05-28 04:00:00 UTC,2445482.666667,28.7317,-95.2428,0109,0.3250
1983-05-28 04:30:00 UTC,2445482.687500,28.7317,-95.2428,0109,0.3230
1983-05-28 05:00:00 UTC,2445482.708333,28.7317,-95.2428,0109,0.3210
1983-05-28 05:30:00 UTC,2445482.729167,28.7317,-95.2428,0109,0.3210
1983-05-28 06:00:00 UTC,2445482.750000,28.7317,-95.2428,0109,0.3200
1983-05-28 06:30:00 UTC,2445482.770833,28.7317,-95.2428,0109,0.3200
1983-05-28 07:00:00 UTC,2445482.791667,28.7317,-95.2428,0109,0.3200
1983-05-28 07:30:00 UTC,2445482.812500,28.7317,-95.2428,0109,0.3200
1983-05-28 08:00:00 UTC,2445482.833333,28.7317,-95.2428,0109,0.3210
1983-05-28 08:30:00 UTC,2445482.854167,28.7317,-95.2428,0109,0.3210
1983-05-28 09:00:00 UTC,2445482.875000,28.7317,-95.2428,0109,0.3210
1983-05-28 09:30:00 UTC,2445482.895833,28.7317,-95.2428,0109,0.3210
1983-05-28 10:00:00 UTC,2445482.916667,28.7317,-95.2428,0109,0.3200
1983-05-28 10:30:00 UTC,2445482.937500,28.7317,-95.2428,0109,0.3200
1983-05-28 11:00:00 UTC,2445482.958333,28.7317,-95.2428,0109,0.3210
1983-05-28 11:30:00 UTC,2445482.979167,28.7317,-95.2428,0109,0.3210
1983-05-28 12:00:00 UTC,2445483.000000,28.7317,-95.2428,0109,0.3210
1983-05-28 12:30:00 UTC,2445483.020833,28.7317,-95.2428,0109,0.3210
1983-05-28 13:00:00 UTC,2445483.041667,28.7317,-95.2428,0109,0.3210
1983-05-28 13:30:00 UTC,2445483.062500,28.7317,-95.2428,0109,0.3210
1983-05-28 14:00:00 UTC,2445483.083333,28.7317,-95.2428,0109,0.3210
1983-05-28 14:30:00 UTC,2445483.104167,28.7317,-95.2428,0109,0.3210
1983-05-28 15:00:00 UTC,2445483.125000,28.7317,-95.2428,0109,0.3220
1983-05-28 15:30:00 UTC,2445483.145833,28.7317,-95.2428,0109,0.3230
1983-05-28 16:00:00 UTC,2445483.166667,28.7317,-95.2428,0109,0.3230
1983-05-28 16:30:00 UTC,2445483.187500,28.7317,-95.2428,0109,0.3230
1983-05-28 17:00:00 UTC,2445483.208333,28.7317,-95.2428,0109,0.3220
1983-05-28 17:30:00 UTC,2445483.229167,28.7317,-95.2428,0109,0.3220
1983-05-28 18:00:00 UTC,2445483.250000,28.7317,-95.2428,0109,0.3210
1983-05-28 18:30:00 UTC,2445483.270833,28.7317,-95.2428,0109,0.3210
1983-05-28 19:00:00 UTC,2445483.291667,28.7317,-95.2428,0109,0.3200
1983-05-28 19:30:00 UTC,2445483.312500,28.7317,-95.2428,0109,0.3190
1983-05-28 20:00:00 UTC,2445483.333333,28.7317,-95.2428,0109,0.3200
1983-05-28 20:30:00 UTC,2445483.354167,28.7317,-95.2428,0109,0.3220
1983-05-28 21:00:00 UTC,2445483.375000,28.7317,-95.2428,0109,0.3230
1983-05-28 21:30:00 UTC,2445483.395833,28.7317,-95.2428,0109,0.3240
1983-05-28 22:00:00 UTC,2445483.416667,28.7317,-95.2428,0109,0.3230
1983-05-28 22:30:00 UTC,2445483.437500,28.7317,-95.2428,0109,0.3230
1983-05-28 23:00:00 UTC,2445483.458333,28.7317,-95.2428,0109,0.3220
1983-05-28 23:30:00 UTC,2445483.479167,28.7317,-95.2428,0109,0.3220
1983-05-29 00:00:00 UTC,2445483.500000,28.7317,-95.2428,0109,0.3220
1983-05-29 00:30:00 UTC,2445483.520833,28.7317,-95.2428,0109,0.3220
1983-05-29 01:00:00 UTC,2445483.541667,28.7317,-95.2428,0109,0.3220
1983-05-29 01:30:00 UTC,2445483.562500,28.7317,-95.2428,0109,0.3220
1983-05-29 02:00:00 UTC,2445483.583333,28.7317,-95.2428,0109,0.3240
1983-05-29 02:30:00 UTC,2445483.604167,28.7317,-95.2428,0109,0.3250
1983-05-29 03:00:00 UTC,2445483.625000,28.7317,-95.2428,0109,0.3260
1983-05-29 03:30:00 UTC,2445483.645833,28.7317,-95.2428,0109,0.3270
1983-05-29 04:00:00 UTC,2445483.666667,28.7317,-95.2428,0109,0.3290
1983-05-29 04:30:00 UTC,2445483.687500,28.7317,-95.2428,0109,0.3290
1983-05-29 05:00:00 UTC,2445483.708333,28.7317,-95.2428,0109,0.3290
1983-05-29 05:30:00 UTC,2445483.729167,28.7317,-95.2428,0109,0.3290
1983-05-29 06:00:00 UTC,2445483.750000,28.7317,-95.2428,0109,0.3300
1983-05-29 06:30:00 UTC,2445483.770833,28.7317,-95.2428,0109,0.3300
1983-05-29 07:00:00 UTC,2445483.791667,28.7317,-95.2428,0109,0.3300
1983-05-29 07:30:00 UTC,2445483.812500,28.7317,-95.2428,0109,0.3300
1983-05-29 08:00:00 UTC,2445483.833333,28.7317,-95.2428,0109,0.3300
1983-05-29 08:30:00 UTC,2445483.854167,28.7317,-95.2428,0109,0.3300
1983-05-29 09:00:00 UTC,2445483.875000,28.7317,-95.2428,0109,0.3310
1983-05-29 09:30:00 UTC,2445483.895833,28.7317,-95.2428,0109,0.3310
1983-05-29 10:00:00 UTC,2445483.916667,28.7317,-95.2428,0109,0.3320
1983-05-29 10:30:00 UTC,2445483.937500,28.7317,-95.2428,0109,0.3320
1983-05-29 11:00:00 UTC,2445483.958333,28.7317,-95.2428,0109,0.3330
1983-05-29 11:30:00 UTC,2445483.979167,28.7317,-95.2428,0109,0.3340
1983-05-29 12:00:00 UTC,2445484.000000,28.7317,-95.2428,0109,0.3340
1983-05-29 12:30:00 UTC,2445484.020833,28.7317,-95.2428,0109,0.3350
1983-05-29 13:00:00 UTC,2445484.041667,28.7317,-95.2428,0109,0.3350
1983-05-29 13:30:00 UTC,2445484.062500,28.7317,-95.2428,0109,0.3360
1983-05-29 14:00:00 UTC,2445484.083333,28.7317,-95.2428,0109,0.3360
1983-05-29 14:30:00 UTC,2445484.104167,28.7317,-95.2428,0109,0.3350
1983-05-29 15:00:00 UTC,2445484.125000,28.7317,-95.2428,0109,0.3350
1983-05-29 15:30:00 UTC,2445484.145833,28.7317,-95.2428,0109,0.3340
1983-05-29 16:00:00 UTC,2445484.166667,28.7317,-95.2428,0109,0.3340
1983-05-29 16:30:00 UTC,2445484.187500,28.7317,-95.2428,0109,0.3340
1983-05-29 17:00:00 UTC,2445484.208333,28.7317,-95.2428,0109,0.3340
1983-05-29 17:30:00 UTC,2445484.229167,28.7317,-95.2428,0109,0.3340
1983-05-29 18:00:00 UTC,2445484.250000,28.7317,-95.2428,0109,0.3340
1983-05-29 18:30:00 UTC,2445484.270833,28.7317,-95.2428,0109,0.3350
1983-05-29 19:00:00 UTC,2445484.291667,28.7317,-95.2428,0109,0.3350
1983-05-29 19:30:00 UTC,2445484.312500,28.7317,-95.2428,0109,0.3340
1983-05-29 20:00:00 UTC,2445484.333333,28.7317,-95.2428,0109,0.3340
1983-05-29 20:30:00 UTC,2445484.354167,28.7317,-95.2428,0109,0.3350
1983-05-29 21:00:00 UTC,2445484.375000,28.7317,-95.2428,0109,0.3340
1983-05-29 21:30:00 UTC,2445484.395833,28.7317,-95.2428,0109,0.3340
1983-05-29 22:00:00 UTC,2445484.416667,28.7317,-95.2428,0109,0.3350
1983-05-29 22:30:00 UTC,2445484.437500,28.7317,-95.2428,0109,0.3350
1983-05-29 23:00:00 UTC,2445484.458333,28.7317,-95.2428,0109,0.3340
1983-05-29 23:30:00 UTC,2445484.479167,28.7317,-95.2428,0109,0.3340
1983-05-30 00:00:00 UTC,2445484.500000,28.7317,-95.2428,0109,0.3340
1983-05-30 00:30:00 UTC,2445484.520833,28.7317,-95.2428,0109,0.3340
1983-05-30 01:00:00 UTC,2445484.541667,28.7317,-95.2428,0109,0.3330
1983-05-30 01:30:00 UTC,2445484.562500,28.7317,-95.2428,0109,0.3330
1983-05-30 02:00:00 UTC,2445484.583333,28.7317,-95.2428,0109,0.3320
1983-05-30 02:30:00 UTC,2445484.604167,28.7317,-95.2428,0109,0.3320
1983-05-30 03:00:00 UTC,2445484.625000,28.7317,-95.2428,0109,0.3320
1983-05-30 03:30:00 UTC,2445484.645833,28.7317,-95.2428,0109,0.3310
1983-05-30 04:00:00 UTC,2445484.666667,28.7317,-95.2428,0109,0.3310
1983-05-30 04:30:00 UTC,2445484.687500,28.7317,-95.2428,0109,0.3310
1983-05-30 05:00:00 UTC,2445484.708333,28.7317,-95.2428,0109,0.3310
1983-05-30 05:30:00 UTC,2445484.729167,28.7317,-95.2428,0109,0.3310
1983-05-30 06:00:00 UTC,2445484.750000,28.7317,-95.2428,0109,0.3310
1983-05-30 06:30:00 UTC,2445484.770833,28.7317,-95.2428,0109,0.3310
1983-05-30 07:00:00 UTC,2445484.791667,28.7317,-95.2428,0109,0.3310
1983-05-30 07:30:00 UTC,2445484.812500,28.7317,-95.2428,0109,0.3300
1983-05-30 08:00:00 UTC,2445484.833333,28.7317,-95.2428,0109,0.3300
1983-05-30 08:30:00 UTC,2445484.854167,28.7317,-95.2428,0109,0.3310
1983-05-30 09:00:00 UTC,2445484.875000,28.7317,-95.2428,0109,0.3340
1983-05-30 09:30:00 UTC,2445484.895833,28.7317,-95.2428,0109,0.3380
1983-05-30 10:00:00 UTC,2445484.916667,28.7317,-95.2428,0109,0.3390
1983-05-30 10:30:00 UTC,2445484.937500,28.7317,-95.2428,0109,0.3390
1983-05-30 11:00:00 UTC,2445484.958333,28.7317,-95.2428,0109,0.3390
1983-05-30 11:30:00 UTC,2445484.979167,28.7317,-95.2428,0109,0.3390
1983-05-30 12:00:00 UTC,2445485.000000,28.7317,-95.2428,0109,0.3390
1983-05-30 12:30:00 UTC,2445485.020833,28.7317,-95.2428,0109,0.3390
1983-05-30 13:00:00 UTC,2445485.041667,28.7317,-95.2428,0109,0.3390
1983-05-30 13:30:00 UTC,2445485.062500,28.7317,-95.2428,0109,0.3390
1983-05-30 14:00:00 UTC,2445485.083333,28.7317,-95.2428,0109,0.3380
1983-05-30 14:30:00 UTC,2445485.104167,28.7317,-95.2428,0109,0.3380
1983-05-30 15:00:00 UTC,2445485.125000,28.7317,-95.2428,0109,0.3370
1983-05-30 15:30:00 UTC,2445485.145833,28.7317,-95.2428,0109,0.3360
1983-05-30 16:00:00 UTC,2445485.166667,28.7317,-95.2428,0109,0.3360
1983-05-30 16:30:00 UTC,2445485.187500,28.7317,-95.2428,0109,0.3370
1983-05-30 17:00:00 UTC,2445485.208333,28.7317,-95.2428,0109,0.3370
1983-05-30 17:30:00 UTC,2445485.229167,28.7317,-95.2428,0109,0.3380
1983-05-30 18:00:00 UTC,2445485.250000,28.7317,-95.2428,0109,0.3380
1983-05-30 18:30:00 UTC,2445485.270833,28.7317,-95.2428,0109,0.3370
1983-05-30 19:00:00 UTC,2445485.291667,28.7317,-95.2428,0109,0.3360
1983-05-30 19:30:00 UTC,2445485.312500,28.7317,-95.2428,0109,0.3350
1983-05-30 20:00:00 UTC,2445485.333333,28.7317,-95.2428,0109,0.3340
1983-05-30 20:30:00 UTC,2445485.354167,28.7317,-95.2428,0109,0.3340
1983-05-30 21:00:00 UTC,2445485.375000,28.7317,-95.2428,0109,0.3350
1983-05-30 21:30:00 UTC,2445485.395833,28.7317,-95.2428,0109,0.3340
1983-05-30 22:00:00 UTC,2445485.416667,28.7317,-95.2428,0109,0.3340
1983-05-30 22:30:00 UTC,2445485.437500,28.7317,-95.2428,0109,0.3330
1983-05-30 23:00:00 UTC,2445485.458333,28.7317,-95.2428,0109,0.3320
1983-05-30 23:30:00 UTC,2445485.479167,28.7317,-95.2428,0109,0.3310
1983-05-31 00:00:00 UTC,2445485.500000,28.7317,-95.2428,0109,0.3310
1983-05-31 00:30:00 UTC,2445485.520833,28.7317,-95.2428,0109,0.3310
1983-05-31 01:00:00 UTC,2445485.541667,28.7317,-95.2428,0109,0.3310
1983-05-31 01:30:00 UTC,2445485.562500,28.7317,-95.2428,0109,0.3310
1983-05-31 02:00:00 UTC,2445485.583333,28.7317,-95.2428,0109,0.3310
1983-05-31 02:30:00 UTC,2445485.604167,28.7317,-95.2428,0109,0.3310
1983-05-31 03:00:00 UTC,2445485.625000,28.7317,-95.2428,0109,0.3310
1983-05-31 03:30:00 UTC,2445485.645833,28.7317,-95.2428,0109,0.3310
1983-05-31 04:00:00 UTC,2445485.666667,28.7317,-95.2428,0109,0.3310
1983-05-31 04:30:00 UTC,2445485.687500,28.7317,-95.2428,0109,0.3310
1983-05-31 05:00:00 UTC,2445485.708333,28.7317,-95.2428,0109,0.3300
1983-05-31 05:30:00 UTC,2445485.729167,28.7317,-95.2428,0109,0.3300
1983-05-31 06:00:00 UTC,2445485.750000,28.7317,-95.2428,0109,0.3290
1983-05-31 06:30:00 UTC,2445485.770833,28.7317,-95.2428,0109,0.3290
1983-05-31 07:00:00 UTC,2445485.791667,28.7317,-95.2428,0109,0.3290
1983-05-31 07:30:00 UTC,2445485.812500,28.7317,-95.2428,0109,0.3290
1983-05-31 08:00:00 UTC,2445485.833333,28.7317,-95.2428,0109,0.3280
1983-05-31 08:30:00 UTC,2445485.854167,28.7317,-95.2428,0109,0.3270
1983-05-31 09:00:00 UTC,2445485.875000,28.7317,-95.2428,0109,0.3260
1983-05-31 09:30:00 UTC,2445485.895833,28.7317,-95.2428,0109,0.3260
1983-05-31 10:00:00 UTC,2445485.916667,28.7317,-95.2428,0109,0.3250
1983-05-31 10:30:00 UTC,2445485.937500,28.7317,-95.2428,0109,0.3230
1983-05-31 11:00:00 UTC,2445485.958333,28.7317,-95.2428,0109,0.3210
1983-05-31 11:30:00 UTC,2445485.979167,28.7317,-95.2428,0109,0.3210
1983-05-31 12:00:00 UTC,2445486.000000,28.7317,-95.2428,0109,0.3230
1983-05-31 12:30:00 UTC,2445486.020833,28.7317,-95.2428,0109,0.3250
1983-05-31 13:00:00 UTC,2445486.041667,28.7317,-95.2428,0109,0.3260
1983-05-31 13:30:00 UTC,2445486.062500,28.7317,-95.2428,0109,0.3260
1983-05-31 14:00:00 UTC,2445486.083333,28.7317,-95.2428,0109,0.3250
1983-05-31 14:30:00 UTC,2445486.104167,28.7317,-95.2428,0109,0.3230
1983-05-31 15:00:00 UTC,2445486.125000,28.7317,-95.2428,0109,0.3210
1983-05-31 15:30:00 UTC,2445486.145833,28.7317,-95.2428,0109,0.3200
1983-05-31 16:00:00 UTC,2445486.166667,28.7317,-95.2428,0109,0.3210
1983-05-31 16:30:00 UTC,2445486.187500,28.7317,-95.2428,0109,0.3210
1983-05-31 17:00:00 UTC,2445486.208333,28.7317,-95.2428,0109,0.3220
1983-05-31 17:30:00 UTC,2445486.229167,28.7317,-95.2428,0109,0.3230
1983-05-31 18:00:00 UTC,2445486.250000,28.7317,-95.2428,0109,0.3240
1983-05-31 18:30:00 UTC,2445486.270833,28.7317,-95.2428,0109,0.3240
1983-05-31 19:00:00 UTC,2445486.291667,28.7317,-95.2428,0109,0.3240
1983-05-31 19:30:00 UTC,2445486.312500,28.7317,-95.2428,0109,0.3240
1983-05-31 20:00:00 UTC,2445486.333333,28.7317,-95.2428,0109,0.3240
1983-05-31 20:30:00 UTC,2445486.354167,28.7317,-95.2428,0109,0.3240
1983-05-31 21:00:00 UTC,2445486.375000,28.7317,-95.2428,0109,0.3250
1983-05-31 21:30:00 UTC,2445486.395833,28.7317,-95.2428,0109,0.3270
1983-05-31 22:00:00 UTC,2445486.416667,28.7317,-95.2428,0109,0.3270
1983-05-31 22:30:00 UTC,2445486.437500,28.7317,-95.2428,0109,0.3270
1983-05-31 23:00:00 UTC,2445486.458333,28.7317,-95.2428,0109,0.3280
1983-05-31 23:30:00 UTC,2445486.479167,28.7317,-95.2428,0109,0.3290
1983-06-01 00:00:00 UTC,2445486.500000,28.7317,-95.2428,0109,0.3290
1983-06-01 00:30:00 UTC,2445486.520833,28.7317,-95.2428,0109,0.3290
1983-06-01 01:00:00 UTC,2445486.541667,28.7317,-95.2428,0109,0.3290
1983-06-01 01:30:00 UTC,2445486.562500,28.7317,-95.2428,0109,0.3290